Location: *
(46.1333°S, 161.2167°W)
Time: 03:33:04
(UTC+00:00)

CSL-04 Rocket - Pass Details

Date: 15 July 2020
Orbit: 805 x 861 km, 98.9° (Epoch: 10 August)

Event Time Altitude Azimuth Distance (km) Brightness Sun altitude
Rises 17:32:13 0° 16° (NNE) 3,354 7.4 -8.5°
Reaches altitude 10° 17:34:32 10° 15° (NNE) 2,437 6.7 -8.1°
Maximum altitude 17:39:58 87° 288° (WNW) 855 3.8 -7.2°
Drops below altitude 10° 17:45:33 10° 195° (SSW) 2,504 5.8 -6.3°
Sets 17:47:57 0° 194° (SSW) 3,454 6.5 -6.0°
